This is the latest recevied weather packets stored in our database for station/object N8QQQ. If no packets are shown the sender has not sent any weather packets the latest 10 day(s).
| Time | Temp. | Humidity | Pressure | Rain* | Wind** | Luminosity | Snow |
|---|---|---|---|---|---|---|---|
| 1777578271 | 3.33° C | 73% | 1015.3 hPa | 0 mm | - | 194 W/m² | - |
| 1777577967 | 3.33° C | 73% | 1015.4 hPa | 0 mm | - | 200 W/m² | - |
| 1777577662 | 3.33° C | 72% | 1015.3 hPa | 0 mm | - | 216 W/m² | - |
| 1777577055 | 2.78° C | 76% | 1015.3 hPa | 0 mm | - | 264 W/m² | - |
| 1777576149 | 2.78° C | 77% | 1015.7 hPa | 0 mm | - | 200 W/m² | - |
| 1777575541 | 3.33° C | 77% | 1015.6 hPa | 0 mm | - | 197 W/m² | - |
| 1777575236 | 2.78° C | 77% | 1015.5 hPa | 0 mm | - | 208 W/m² | - |
| 1777574026 | 2.78° C | 81% | 1015.4 hPa | 0 mm | - | 196 W/m² | - |
| 1777573721 | 2.22° C | 81% | 1015.6 hPa | 0 mm | - | 202 W/m² | - |
| 1777568860 | 1.67° C | 82% | 1015.7 hPa | 0 mm | - | 142 W/m² | - |
| 1777567647 | 1.67° C | 84% | 1015.7 hPa | 0 mm | - | 165 W/m² | - |
| 1777566438 | 1.67° C | 90% | 1016 hPa | 1.27 mm | - | 201 W/m² | - |
| 1777565527 | 1.67° C | 92% | 1015.7 hPa | 1.78 mm | - | 193 W/m² | - |
| 1777559761 | 0.56° C | 93% | 1015.9 hPa | 1.78 mm | - | 80 W/m² | - |
| 1777559155 | 0.56° C | 95% | 1015.9 hPa | 1.78 mm | - | 104 W/m² | - |
| 1777558237 | 0° C | 95% | 1015.9 hPa | 0 mm | - | 85 W/m² | - |
| 1777557932 | 0° C | 95% | 1016 hPa | 0 mm | - | 73 W/m² | - |
| 1777557630 | 0.56° C | 96% | 1015.9 hPa | 1.27 mm | - | 72 W/m² | - |
| 1777557326 | 0° C | 95% | 1015.8 hPa | 1.27 mm | - | 68 W/m² | - |
| 1777557022 | 0° C | 96% | 1016 hPa | 0 mm | - | 64 W/m² | - |
| 1777556718 | 0° C | 96% | 1015.9 hPa | 0 mm | - | 66 W/m² | - |
| 1777556114 | 0° C | 97% | 1015.8 hPa | 0 mm | - | 64 W/m² | - |
| 1777555506 | 0° C | 97% | 1016 hPa | 0 mm | - | 42 W/m² | - |
| 1777554900 | 0° C | 97% | 1016.1 hPa | 0 mm | - | 49 W/m² | - |
| 1777554596 | 0° C | 98% | 1015.6 hPa | 0 mm | - | 45 W/m² | - |
* Rain latest hour (hover to see other rain measurements)
** Current wind speed in m/s (hover to see current wind gust speed)